| time (UTC) | temp F | wind direction | speed MPH | gust MPH | rain 1hr in | rain 24hr in | rain mn in | humidity % | barometer mb |
| 20260510060749 | 52 | 203 | 0.0 | 0.0 | 0.00 | 0.12 | 0.00 | 88 | 1007.2 |
| 20260510055749 | 51 | 203 | 0.0 | 0.0 | 0.00 | 0.12 | 0.00 | 88 | 1007.1 |
| 20260510054749 | 51 | 203 | 0.0 | 0.0 | 0.00 | 0.12 | 0.00 | 89 | 1006.9 |
| 20260510053749 | 51 | 200 | 0.0 | 0.0 | 0.00 | 0.12 | 0.00 | 88 | 1006.8 |
| 20260510052748 | 51 | 200 | 0.0 | 0.0 | 0.00 | 0.12 | 0.00 | 88 | 1006.8 |
| 20260510052228 | 51 | 200 | 0.0 | 0.0 | 0.00 | 0.12 | 0.00 | 88 | 1006.7 |
| 20260510051225 | 52 | 200 | 0.0 | 0.0 | 0.00 | 0.12 | 0.00 | 87 | 1006.3 |
| 20260510045740 | 52 | 200 | 0.0 | 0.0 | 0.00 | 0.12 | 0.00 | 87 | 1006.1 |
| 20260510044741 | 52 | 200 | 0.0 | 0.0 | 0.00 | 0.12 | 0.00 | 87 | 1006.1 |
| 20260510043740 | 52 | 202 | 0.0 | 0.0 | 0.00 | 0.12 | 0.00 | 86 | 1006.1 |
| 20260510042741 | 53 | 202 | 0.0 | 0.0 | 0.00 | 0.12 | 0.00 | 86 | 1006.0 |
| 20260510041740 | 53 | 203 | 0.0 | 0.0 | 0.00 | 0.12 | 0.00 | 86 | 1005.9 |
| 20260510040740 | 53 | 203 | 0.0 | 0.0 | 0.00 | 0.12 | 0.00 | 86 | 1005.8 |
| 20260510035737 | 53 | 202 | 0.0 | 0.0 | 0.00 | 0.12 | 0.12 | 86 | 1005.9 |
| 20260510035211 | 53 | 204 | 0.0 | 0.0 | 0.00 | 0.12 | 0.12 | 86 | 1005.9 |
| 20260510033731 | 53 | 204 | 0.0 | 0.0 | 0.00 | 0.12 | 0.12 | 86 | 1005.8 |
| 20260510032731 | 53 | 204 | 0.0 | 0.0 | 0.00 | 0.12 | 0.12 | 86 | 1005.5 |
| 20260510031732 | 53 | 203 | 0.0 | 0.0 | 0.00 | 0.12 | 0.12 | 86 | 1005.3 |
| 20260510030730 | 53 | 201 | 0.0 | 1.0 | 0.00 | 0.12 | 0.12 | 86 | 1005.2 |
| 20260510025729 | 53 | 199 | 0.0 | 1.0 | 0.00 | 0.12 | 0.12 | 86 | 1005.1 |
| 20260510024729 | 53 | 195 | 0.0 | 1.0 | 0.00 | 0.12 | 0.12 | 86 | 1005.0 |
| 20260510023729 | 53 | 190 | 0.0 | 0.0 | 0.00 | 0.12 | 0.12 | 86 | 1005.0 |
| 20260510022729 | 53 | 218 | 0.0 | 0.0 | 0.00 | 0.12 | 0.12 | 86 | 1004.9 |
| 20260510022653 | 53 | 200 | 0.0 | 3.0 | 0.00 | 0.12 | 0.12 | 87 | 1004.9 |
| 20260510020730 | 53 | 205 | 0.0 | 0.0 | 0.00 | 0.12 | 0.12 | 87 | 1004.8 |
| 20260510015730 | 53 | 213 | 0.0 | 1.0 | 0.00 | 0.12 | 0.12 | 87 | 1004.5 |
| 20260510014730 | 53 | 204 | 0.0 | 4.0 | 0.00 | 0.12 | 0.12 | 87 | 1004.6 |
| 20260510013729 | 53 | 216 | 0.0 | 1.0 | 0.00 | 0.12 | 0.12 | 87 | 1004.7 |
| 20260510013638 | 53 | 223 | 0.0 | 2.0 | 0.02 | 0.12 | 0.12 | 87 | 1004.6 |
| 20260510011729 | 54 | 228 | 0.0 | 6.0 | 0.03 | 0.12 | 0.12 | 86 | 1004.2 |
| 20260510010729 | 54 | 208 | 1.0 | 9.0 | 0.04 | 0.12 | 0.12 | 86 | 1004.2 |
| 20260510005728 | 53 | 211 | 1.0 | 10.0 | 0.12 | 0.12 | 0.12 | 87 | 1004.1 |
| 20260510005657 | 53 | 189 | 1.0 | 10.0 | 0.12 | 0.12 | 0.12 | 88 | 1003.8 |
| 20260510003728 | 53 | 220 | 0.0 | 10.0 | 0.12 | 0.12 | 0.12 | 88 | 1004.7 |
| 20260510002728 | 53 | 271 | 0.0 | 6.0 | 0.10 | 0.10 | 0.10 | 88 | 1004.7 |
| 20260510002700 | 53 | 200 | 0.0 | 11.0 | 0.09 | 0.09 | 0.09 | 87 | 1004.6 |
| 20260510000729 | 54 | 240 | 1.0 | 17.0 | 0.08 | 0.08 | 0.08 | 83 | 1004.6 |
| 20260509235728 | 62 | 284 | 0.0 | 19.0 | 0.00 | 0.00 | 0.00 | 61 | 1004.8 |
| 20260509234729 | 65 | 189 | 0.0 | 0.0 | 0.00 | 0.00 | 0.00 | 55 | 1002.5 |
| 20260509233728 | 66 | 190 | 0.0 | 0.0 | 0.00 | 0.00 | 0.00 | 54 | 1002.3 |
| 20260509232729 | 66 | 134 | 0.0 | 1.0 | 0.00 | 0.00 | 0.00 | 53 | 1001.9 |
| 20260509231729 | 66 | 148 | 0.0 | 1.0 | 0.00 | 0.00 | 0.00 | 52 | 1001.9 |
| 20260509231205 | 66 | 147 | 0.0 | 0.0 | 0.00 | 0.00 | 0.00 | 52 | 1001.8 |
| 20260509225729 | 67 | 150 | 0.0 | 0.0 | 0.00 | 0.00 | 0.00 | 52 | 1002.2 |
| 20260509224729 | 67 | 209 | 0.0 | 2.0 | 0.00 | 0.00 | 0.00 | 51 | 1002.2 |
| 20260509223730 | 67 | 227 | 0.0 | 6.0 | 0.00 | 0.00 | 0.00 | 50 | 1002.2 |
| 20260509222729 | 67 | 200 | 0.0 | 7.0 | 0.00 | 0.00 | 0.00 | 51 | 1002.5 |
| 20260509221729 | 67 | 205 | 0.0 | 5.0 | 0.00 | 0.00 | 0.00 | 51 | 1002.5 |
| 20260509220729 | 67 | 217 | 0.0 | 5.0 | 0.00 | 0.00 | 0.00 | 49 | 1002.5 |
| 20260509215729 | 67 | 169 | 0.0 | 7.0 | 0.00 | 0.00 | 0.00 | 50 | 1002.3 |
| 20260509214729 | 67 | 175 | 1.0 | 13.0 | 0.00 | 0.00 | 0.00 | 50 | 1002.3 |
| 20260509214210 | 67 | 200 | 1.0 | 11.0 | 0.00 | 0.00 | 0.00 | 52 | 1002.5 |
| 20260509212729 | 67 | 206 | 1.0 | 12.0 | 0.00 | 0.00 | 0.00 | 52 | 1002.4 |
| 20260509212207 | 68 | 239 | 1.0 | 8.0 | 0.00 | 0.00 | 0.00 | 52 | 1002.3 |
| 20260509210728 | 67 | 171 | 2.0 | 11.0 | 0.00 | 0.00 | 0.00 | 52 | 1002.3 |
| 20260509205728 | 68 | 195 | 1.0 | 10.0 | 0.00 | 0.00 | 0.00 | 52 | 1002.1 |
| 20260509205207 | 69 | 135 | 1.0 | 13.0 | 0.00 | 0.00 | 0.00 | 50 | 1002.2 |
| 20260509203728 | 69 | 214 | 0.0 | 9.0 | 0.00 | 0.00 | 0.00 | 51 | 1002.0 |
| 20260509202728 | 70 | 214 | 0.0 | 8.0 | 0.00 | 0.00 | 0.00 | 50 | 1002.3 |
| 20260509202205 | 69 | 192 | 1.0 | 16.0 | 0.00 | 0.00 | 0.00 | 51 | 1002.4 |
| 20260509200728 | 69 | 227 | 1.0 | 12.0 | 0.00 | 0.00 | 0.00 | 51 | 1002.5 |
| 20260509195726 | 69 | 194 | 1.0 | 11.0 | 0.00 | 0.00 | 0.00 | 51 | 1002.7 |
| 20260509194725 | 69 | 194 | 0.0 | 8.0 | 0.00 | 0.00 | 0.00 | 51 | 1003.0 |
| 20260509193720 | 68 | 194 | 0.0 | 8.0 | 0.00 | 0.00 | 0.00 | 52 | 1003.1 |
| 20260509192720 | 68 | 192 | 0.0 | 10.0 | 0.00 | 0.00 | 0.00 | 53 | 1003.0 |
| 20260509191720 | 68 | 198 | 0.0 | 8.0 | 0.00 | 0.00 | 0.00 | 53 | 1003.1 |
| 20260509191154 | 68 | 194 | 0.0 | 6.0 | 0.00 | 0.00 | 0.00 | 46 | 1003.0 |
| 20260509185720 | 68 | 196 | 0.0 | 6.0 | 0.00 | 0.00 | 0.00 | 48 | 1003.2 |
| 20260509184720 | 69 | 193 | 1.0 | 8.0 | 0.00 | 0.00 | 0.00 | 47 | 1003.4 |
| 20260509184156 | 68 | 204 | 0.0 | 12.0 | 0.00 | 0.00 | 0.00 | 49 | 1003.5 |
| 20260509182720 | 67 | 158 | 0.0 | 5.0 | 0.00 | 0.00 | 0.00 | 50 | 1003.7 |
| 20260509181720 | 65 | 157 | 0.0 | 7.0 | 0.00 | 0.00 | 0.00 | 57 | 1003.9 |
| 20260509180720 | 63 | 128 | 0.0 | 0.0 | 0.00 | 0.00 | 0.00 | 63 | 1004.2 |
| 20260509175720 | 64 | 128 | 0.0 | 0.0 | 0.00 | 0.00 | 0.00 | 63 | 1004.2 |
| 20260509174720 | 62 | 128 | 0.0 | 2.0 | 0.00 | 0.00 | 0.00 | 66 | 1004.3 |
| 20260509174157 | 62 | 136 | 0.0 | 0.0 | 0.00 | 0.00 | 0.00 | 64 | 1004.4 |
| 20260509172721 | 64 | 137 | 0.0 | 0.0 | 0.00 | 0.00 | 0.00 | 62 | 1004.5 |
| 20260509171720 | 66 | 137 | 0.0 | 2.0 | 0.00 | 0.00 | 0.00 | 57 | 1004.5 |
| 20260509171158 | 66 | 136 | 0.0 | 2.0 | 0.00 | 0.00 | 0.00 | 57 | 1004.6 |
| 20260509165720 | 65 | 136 | 0.0 | 1.0 | 0.00 | 0.00 | 0.00 | 58 | 1004.7 |
| 20260509164720 | 64 | 136 | 0.0 | 0.0 | 0.00 | 0.00 | 0.00 | 61 | 1004.8 |
| 20260509163718 | 64 | 136 | 0.0 | 1.0 | 0.00 | 0.00 | 0.00 | 60 | 1004.9 |
| 20260509162718 | 64 | 136 | 0.0 | 4.0 | 0.00 | 0.00 | 0.00 | 58 | 1005.0 |
| 20260509161717 | 64 | 134 | 0.0 | 0.0 | 0.00 | 0.00 | 0.00 | 61 | 1005.3 |
| 20260509160718 | 63 | 134 | 0.0 | 2.0 | 0.00 | 0.00 | 0.00 | 64 | 1005.5 |
| 20260509155718 | 64 | 134 | 0.0 | 1.0 | 0.00 | 0.00 | 0.00 | 61 | 1005.6 |
| 20260509154717 | 62 | 134 | 0.0 | 3.0 | 0.00 | 0.00 | 0.00 | 62 | 1005.7 |
| 20260509153718 | 64 | 132 | 0.0 | 7.0 | 0.00 | 0.00 | 0.00 | 60 | 1005.8 |
| 20260509152717 | 63 | 130 | 0.0 | 0.0 | 0.00 | 0.00 | 0.00 | 64 | 1005.8 |
| 20260509151714 | 62 | 130 | 0.0 | 0.0 | 0.00 | 0.00 | 0.00 | 65 | 1005.9 |
| 20260509150713 | 63 | 130 | 0.0 | 0.0 | 0.00 | 0.00 | 0.00 | 64 | 1006.0 |
| 20260509145713 | 62 | 130 | 0.0 | 1.0 | 0.00 | 0.00 | 0.00 | 65 | 1006.0 |
| 20260509144713 | 60 | 130 | 0.0 | 0.0 | 0.00 | 0.00 | 0.00 | 70 | 1006.1 |
| 20260509143713 | 60 | 132 | 0.0 | 1.0 | 0.00 | 0.00 | 0.00 | 68 | 1006.2 |
| 20260509143146 | 60 | 132 | 0.0 | 1.0 | 0.00 | 0.00 | 0.00 | 69 | 1006.3 |
| 20260509141708 | 59 | 0 | 0.0 | 4.0 | 0.00 | 0.00 | 0.00 | 71 | 1006.4 |
| 20260509141619 | 58 | 0 | 0.0 | 0.0 | 0.00 | 0.00 | 0.00 | 72 | 1006.4 |
| 20260509135707 | 58 | 129 | 0.0 | 3.0 | 0.00 | 0.00 | 0.00 | 73 | 1006.4 |
| 20260509134707 | 57 | 127 | 0.0 | 3.0 | 0.00 | 0.00 | 0.00 | 74 | 1006.5 |
| 20260509133707 | 57 | 123 | 0.0 | 3.0 | 0.00 | 0.00 | 0.00 | 74 | 1006.6 |
| 20260509132707 | 56 | 121 | 0.0 | 4.0 | 0.00 | 0.00 | 0.00 | 75 | 1006.7 |
| 20260509132146 | 55 | 115 | 0.0 | 3.0 | 0.00 | 0.00 | 0.00 | 76 | 1006.9 |
| 20260509130707 | 55 | 109 | 0.0 | 1.0 | 0.00 | 0.00 | 0.00 | 76 | 1006.9 |
| 20260509125703 | 54 | 108 | 0.0 | 1.0 | 0.00 | 0.00 | 0.00 | 77 | 1007.0 |
| 20260509124701 | 53 | 108 | 0.0 | 4.0 | 0.00 | 0.01 | 0.00 | 77 | 1007.1 |
| 20260509123701 | 53 | 106 | 0.0 | 0.0 | 0.00 | 0.02 | 0.00 | 77 | 1007.3 |
| 20260509122701 | 52 | 105 | 0.0 | 0.0 | 0.00 | 0.02 | 0.00 | 76 | 1007.2 |
| 20260509121701 | 51 | 104 | 0.0 | 0.0 | 0.00 | 0.02 | 0.00 | 76 | 1007.2 |
| 20260509120701 | 50 | 105 | 0.0 | 0.0 | 0.00 | 0.02 | 0.00 | 76 | 1007.1 |
| 20260509115700 | 49 | 105 | 0.0 | 0.0 | 0.00 | 0.02 | 0.00 | 76 | 1007.3 |
| 20260509114701 | 48 | 0 | 0.0 | 0.0 | 0.00 | 0.02 | 0.00 | 75 | 1007.2 |
| 20260509113701 | 47 | 104 | 0.0 | 0.0 | 0.00 | 0.02 | 0.00 | 75 | 1007.3 |
| 20260509112701 | 47 | 104 | 0.0 | 0.0 | 0.00 | 0.02 | 0.00 | 74 | 1007.4 |
| 20260509111701 | 46 | 104 | 0.0 | 0.0 | 0.00 | 0.02 | 0.00 | 74 | 1007.3 |
| 20260509111139 | 46 | 104 | 0.0 | 1.0 | 0.00 | 0.02 | 0.00 | 74 | 1007.5 |
| 20260509105701 | 45 | 103 | 0.0 | 2.0 | 0.00 | 0.02 | 0.00 | 74 | 1007.3 |
| 20260509104701 | 45 | 103 | 0.0 | 1.0 | 0.00 | 0.02 | 0.00 | 74 | 1007.3 |
| 20260509104141 | 44 | 103 | 0.0 | 0.0 | 0.00 | 0.02 | 0.00 | 74 | 1007.2 |
| 20260509102701 | 44 | 103 | 0.0 | 0.0 | 0.00 | 0.02 | 0.00 | 73 | 1007.2 |
| 20260509101701 | 44 | 103 | 0.0 | 0.0 | 0.00 | 0.02 | 0.00 | 73 | 1007.1 |
| 20260509100701 | 44 | 103 | 0.0 | 0.0 | 0.00 | 0.02 | 0.00 | 72 | 1007.1 |
| 20260509095701 | 43 | 103 | 0.0 | 0.0 | 0.00 | 0.02 | 0.00 | 72 | 1007.1 |
| 20260509094701 | 43 | 103 | 0.0 | 0.0 | 0.00 | 0.02 | 0.00 | 72 | 1007.2 |
| 20260509093700 | 43 | 103 | 0.0 | 0.0 | 0.00 | 0.02 | 0.00 | 72 | 1007.3 |
| 20260509093139 | 43 | 103 | 0.0 | 0.0 | 0.00 | 0.02 | 0.00 | 72 | 1007.2 |
| 20260509092144 | 43 | 103 | 0.0 | 0.0 | 0.00 | 0.02 | 0.00 | 72 | 1007.2 |
| 20260509090701 | 43 | 103 | 0.0 | 0.0 | 0.00 | 0.02 | 0.00 | 72 | 1007.3 |
| 20260509085701 | 43 | 103 | 0.0 | 0.0 | 0.00 | 0.02 | 0.00 | 72 | 1007.4 |
| 20260509084701 | 43 | 103 | 0.0 | 0.0 | 0.00 | 0.02 | 0.00 | 72 | 1007.4 |
| 20260509083701 | 42 | 103 | 0.0 | 1.0 | 0.00 | 0.02 | 0.00 | 73 | 1007.5 |
| 20260509082701 | 42 | 103 | 0.0 | 0.0 | 0.00 | 0.02 | 0.00 | 73 | 1007.6 |
| 20260509081701 | 42 | 103 | 0.0 | 0.0 | 0.00 | 0.02 | 0.00 | 73 | 1007.6 |
| 20260509080702 | 42 | 103 | 0.0 | 0.0 | 0.00 | 0.02 | 0.00 | 73 | 1007.7 |
| 20260509075702 | 42 | 103 | 0.0 | 0.0 | 0.00 | 0.02 | 0.00 | 73 | 1007.8 |
| 20260509074701 | 42 | 103 | 0.0 | 0.0 | 0.00 | 0.02 | 0.00 | 72 | 1007.8 |
| 20260509073702 | 42 | 103 | 0.0 | 0.0 | 0.00 | 0.02 | 0.00 | 72 | 1007.9 |
| 20260509072702 | 42 | 103 | 0.0 | 0.0 | 0.00 | 0.02 | 0.00 | 72 | 1008.0 |
| 20260509071702 | 43 | 103 | 0.0 | 0.0 | 0.00 | 0.02 | 0.00 | 72 | 1008.1 |
| 20260509070702 | 43 | 103 | 0.0 | 0.0 | 0.00 | 0.02 | 0.00 | 72 | 1008.2 |
| 20260509065701 | 43 | 103 | 0.0 | 0.0 | 0.00 | 0.02 | 0.00 | 71 | 1008.3 |
| 20260509064702 | 43 | 103 | 0.0 | 0.0 | 0.00 | 0.02 | 0.00 | 71 | 1008.4 |
| 20260509064144 | 43 | 103 | 0.0 | 0.0 | 0.00 | 0.02 | 0.00 | 71 | 1008.5 |
| 20260509062703 | 43 | 103 | 0.0 | 0.0 | 0.00 | 0.02 | 0.00 | 71 | 1008.6 |